Raleigh-Durham Airport, NC

4:47 PM EDT on June 21, 2018 (GMT -0400)
Raleigh-Durham International

Weather History for KRDU - January, 2018

Change the Weather History Date:

Sunday, January 7, 2018

  Actual Average Record
Temperature  
Mean Temperature 17 °F 40 °F  
Max Temperature 30 °F 50 °F 75 °F (1907)
Min Temperature 4 °F 31 °F 4 °F (2018)
Degree Days  
Heating Degree Days 48 25  
Month to date heating degree days 308 170  
Since 1 July heating degree days 1587 1421  
Cooling Degree Days 0 0  
Month to date cooling degree days 0 0  
Year to date cooling degree days 0 0  
Moisture  
Dew Point -3 °F    
Average Humidity 50    
Maximum Humidity 79    
Minimum Humidity 21    
Precipitation  
Precipitation 0.00 in 0.12 in 1.18 in (1894)
Month to date precipitation 0.06 0.76  
Year to date precipitation 0.06 0.76  
Snow  
Snow 0.00 in 0.10 in 7.10 in (1988)
Month to date snowfall 0.9 0.5  
Since 1 July snowfall 1.2 1.2  
Snow Depth 0.00 in    
Sea Level Pressure  
Sea Level Pressure 30.61 in    
Wind  
Wind Speed 3 mph (SE)    
Max Wind Speed 10 mph    
Max Gust Speed 13 mph    
Visibility 10 miles    
Events      
T = Trace of Precipitation, MM = Missing Value Source: NWS Daily Summary

Daily Weather History Graph

Daily Weather History Graph

Search for Another Location

Airport or City:

Astronomy

Jan. 07, 2018 Rise Set
Actual Time 7:25 AM EST 5:17 PM EST
Civil Twilight 6:57 AM EST 5:45 PM EST
Nautical Twilight 6:25 AM EST 6:17 PM EST
Astronomical Twilight 5:54 AM EST 6:48 PM EST
Moon 11:43 PM EST (1/7) 11:27 AM EST (1/7)
Length of Visible Light 10h 47m
Length of Day
9h 51m
Waning Gibbous, 63% of the Moon is Illuminated
Jan 7
Waning Gibbous
Jan 8
Last Quarter
Jan 16
New
Jan 24
First Quarter
Jan 31
Full

Hourly Weather History & Observations

Time (EST) Temp. Windchill Dew Point Humidity Pressure Visibility Wind Dir Wind Speed Gust Speed Precip Events Conditions
12:51 AM 12.0 °F 5.9 °F -5.1 °F 46% 30.62 in 10.0 mi NNE 3.5 mph - N/A   Clear
1:51 AM 10.9 °F 4.7 °F -5.1 °F 49% 30.62 in 10.0 mi ENE 3.5 mph - N/A   Clear
2:51 AM 9.0 °F - -4.0 °F 56% 30.64 in 10.0 mi Calm Calm - N/A   Clear
3:51 AM 8.1 °F - -2.9 °F 61% 30.64 in 10.0 mi Calm Calm - N/A   Clear
4:51 AM 6.1 °F - -4.0 °F 63% 30.64 in 10.0 mi Calm Calm - N/A   Clear
5:51 AM 6.1 °F - -2.0 °F 69% 30.65 in 10.0 mi Calm Calm - N/A   Clear
6:51 AM 3.9 °F - -2.0 °F 76% 30.69 in 10.0 mi Calm Calm - N/A   Clear
7:51 AM 6.1 °F - -0.9 °F 73% 30.68 in 10.0 mi Calm Calm - N/A   Partly Cloudy
8:51 AM 14.0 °F 5.1 °F 1.0 °F 56% 30.69 in 10.0 mi NE 5.8 mph - N/A   Partly Cloudy
9:51 AM 17.1 °F 7.6 °F -2.9 °F 41% 30.70 in 10.0 mi ENE 6.9 mph - N/A   Partly Cloudy
10:51 AM 19.9 °F 13.4 °F -5.1 °F 33% 30.69 in 10.0 mi ENE 4.6 mph - N/A   Scattered Clouds
11:51 AM 23.0 °F 17.0 °F -5.1 °F 29% 30.66 in 10.0 mi Variable 4.6 mph - N/A   Scattered Clouds
12:51 PM 26.1 °F 21.9 °F -7.1 °F 23% 30.63 in 10.0 mi Variable 3.5 mph - N/A   Scattered Clouds
1:51 PM 26.1 °F 21.9 °F -8.0 °F 22% 30.60 in 10.0 mi Variable 3.5 mph - N/A   Scattered Clouds
2:51 PM 28.9 °F 23.9 °F -7.1 °F 21% 30.58 in 10.0 mi Variable 4.6 mph - N/A   Mostly Cloudy
3:51 PM 28.9 °F 25.2 °F -6.0 °F 22% 30.57 in 10.0 mi South 3.5 mph - N/A   Mostly Cloudy
4:51 PM 26.1 °F 20.5 °F -5.1 °F 26% 30.56 in 10.0 mi SSW 4.6 mph - N/A   Mostly Cloudy
5:51 PM 24.1 °F - -2.9 °F 31% 30.56 in 10.0 mi Calm Calm - N/A   Mostly Cloudy
6:51 PM 24.1 °F 19.7 °F -2.9 °F 31% 30.56 in 10.0 mi SSE 3.5 mph - N/A   Mostly Cloudy
7:51 PM 23.0 °F - -2.0 °F 34% 30.56 in 10.0 mi Calm Calm - N/A   Mostly Cloudy
8:51 PM 19.9 °F 14.9 °F 1.0 °F 44% 30.55 in 10.0 mi South 3.5 mph - N/A   Mostly Cloudy
9:51 PM 19.9 °F 13.4 °F -0.9 °F 40% 30.54 in 10.0 mi South 4.6 mph - N/A   Mostly Cloudy
10:51 PM 21.0 °F - -0.9 °F 38% 30.53 in 10.0 mi Calm Calm - N/A   Mostly Cloudy
11:51 PM 21.0 °F 16.2 °F 1.0 °F 42% 30.51 in 10.0 mi South 3.5 mph - N/A   Overcast